Regional Weather Roundup
Issued by NWS

Home | Current Version | Previous Version | Graphics & Text | Print | Product List | Glossary On
Versions: 1 2 3 4 5 6 7 8 9 10 11 12 13 14 15 16 17 18 19 20 21 22 23 24 25 26 27 28 29 30 31 32 33 34 35 36 37 38 39 40 41 42 43 44 45 46 47 48 49 50
000
ASUS43 KLMK 201110
RWRKY
KENTUCKY REGIONAL WEATHER ROUNDUP
NATIONAL WEATHER SERVICE LOUISVILLE KY
600 AM EST SAT DEC 20 2014

NOTE "FAIR" INDICATES FEW OR NO CLOUDS BELOW 12,000 FEET
WITH NO SIGNIFICANT WEATHER AND/OR OBSTRUCTIONS TO VISIBILITY.

KYZ001>023-026-027-061>063-070>075-201200-
WESTERN AND SOUTH CENTRAL KENTUCKY

CITY           SKY/WX    TMP DP  RH WIND       PRES   REMARKS
PADUCAH        CLOUDY    35  27  72 NE3       30.26R
HENDERSON      CLOUDY    30  25  80 CALM      30.27R
OWENSBORO      CLOUDY    31  25  78 E3        30.27F
HOPKINSVILLE   CLOUDY    32  28  83 NE3       30.24S
BOWLING GREEN  CLOUDY    32  24  72 N3        30.26R
GLASGOW        CLOUDY    30  26  83 CALM      30.24S
$$

KYZ024-025-028>034-038-045-046-053-201200-
NORTH CENTRAL KENTUCKY

CITY           SKY/WX    TMP DP  RH WIND       PRES   REMARKS
LOUISVILLE/SDF CLOUDY    30  24  78 VRB3      30.28R
LOUISVILLE/LOU CLOUDY    29  24  82 N3        30.28R
FORT KNOX      CLOUDY    29  22  77 N1        30.25R
$$

KYZ035>037-039>044-047>052-055>060-089>105-201200-
NORTHEAST KENTUCKY

CITY           SKY/WX    TMP DP  RH WIND       PRES   REMARKS
LEXINGTON      CLOUDY    28  23  81 E6        30.24S WCI  22
COVINGTON      CLOUDY    30  21  69 CALM      30.25R
FRANKFORT      CLOUDY    28  22  78 NE5       30.25R WCI  23
$$

KYZ054-064>069-076>088-106>120-201200-
SOUTHEAST KENTUCKY

CITY           SKY/WX    TMP DP  RH WIND       PRES   REMARKS
JACKSON        CLOUDY    28  22  78 CALM      30.21R
LONDON         CLOUDY    31  23  72 N3        30.21R
SOMERSET       CLOUDY    30  25  80 N3        30.25R
MIDDLESBORO    CLOUDY    34  30  87 CALM      30.20S
MONTICELLO     MOSUNNY   31  27  85 CALM      30.25R
$$




USA.gov is the U.S. government's official web portal to all federal, state and local government web resources and services.